Flag for Poland Weather past 2 weeks in Lidzbark Warmiński, Poland

Now
66 °F

Mild.


Feels Like: 66 °F
Forecast: 50 / 75 °F
Wind: 5 mph from North

Location: Ketrzyn

Current Time: Jul 1, 2015 at 9:34:51 PM

Latest Report: Jul 1, 2015 at 8:00 PM


Visibility: 22 mi

Pressure: 30.26 "Hg

Humidity: 61%

Dew point: 52 °F

Location of Lidzbark WarmińskiLocation

Historic Weather in Lidzbark Warmiński — Graph

°F

Lidzbark Warmiński temperature yesterday

Maximum temperature yesterday: 73 °F (at 3:00 PM)
Minimum temperature yesterday: 50 °F (at 2:00 AM)
Average temperature yesterday: 61 °F

Past Weeks' High & Low Weather Summary

 TemperatureHumidityPressure
High74 °F (Jun 28, 4:00 PM)98% (Jul 1, 6:00 AM)30.26 "Hg (Jul 1, 6:00 AM)
Low42 °F (Jun 27, 4:00 AM)37% (Jun 27, 3:00 PM)29.67 "Hg (Jun 23, 4:00 AM)
Average59 °F75%29.98 "Hg
* Reported Jun 16 8:00 PM — Jul 1 8:00 PM, Lidzbark Warmiński, Weather by CustomWeather, © 2015

Note: Actual official high and low records may vary slightly from our data, if they occured in-between our weather recording intervals... More about our weather records

Advertising

Lidzbark Warmiński weather history for previous 24 hours

 ConditionsComfort  
Time TempWeatherWind HumidityBarometerVisibility
8:00 PM
Wed, Jul 1
66 °FMild.5 mph61%30.26 "Hg22 mi
7:00 PM69 °FMild.5 mph61%30.24 "Hg25 mi
6:00 PM70 °FMild.6 mph60%30.23 "Hg28 mi
5:00 PM71 °FMild.5 mph55%30.22 "Hg22 mi
4:00 PM72 °FMild.5 mph56%30.22 "Hg22 mi
3:00 PM71 °FMild.5 mph57%30.22 "Hg19 mi
2:00 PM71 °FMild.5 mph59%30.23 "Hg19 mi
1:00 PM69 °FMild.6 mph61%30.22 "Hg19 mi
12:00 PM69 °FMild.5 mph64%30.23 "Hg19 mi
11:00 AM65 °FMild.3 mph73%30.23 "Hg19 mi
10:00 AM65 °FMild.3 mph79%30.23 "Hg15 mi
9:00 AM60 °FCool.3 mph85%30.22 "Hg12 mi
8:00 AM59 °FFog.3 mph95%30.22 "Hg7 mi
7:00 AM55 °FFog.1 mph98%30.21 "Hg4 mi
6:00 AM52 °FCool.1 mph98%30.21 "Hg2 mi
4:00 AM48 °FDuststorm.1 mph97%30.19 "Hg0 mi
3:00 AM49 °FDuststorm.1 mph97%30.18 "Hg0 mi
2:00 AM49 °FDuststorm.1 mph96%30.18 "Hg1 mi
1:00 AM50 °FFog.1 mph95%30.18 "Hg5 mi
12:00 AM52 °FCool.1 mph91%30.17 "Hg11 mi
11:00 PM
Tue, Jun 30
55 °FCool.3 mph86%30.17 "Hg19 mi
10:00 PM57 °FCool.3 mph78%30.15 "Hg25 mi
9:00 PM60 °FCool.3 mph69%30.14 "Hg31 mi
Weather by CustomWeather, © 2015

See weather overviewHow to use our weather pages